{"data":{"norad_id":68229,"intl_designator":"2026-053Y","name":"STARLINK-37081","alt_names":[],"object_type":"PAYLOAD","status":"ACTIVE","operator":null,"country":"US","launch_date":"2026-03-17","launch_site_code":"AFWTR","launch_vehicle":null,"mission":null,"orbit_class":"UNKNOWN","rcs_meters":null,"size_class":null,"mass_kg":null,"dimensions":null,"purposes":["comms"],"wikipedia_slug":null,"has_3d_model":false,"image_url":null,"decayed_at":null,"tle_current":{"epoch":"2026-09-20T02:55:42.668832Z","epoch_age_seconds":84128,"freshness":"FRESH","line1":"1 68229U 26053Y   26263.12202163  .00010293  00000+0  32048-3 0  9993","line2":"2 68229  97.2840 139.9242 0002590  76.8985 283.2546 15.33466307 30212","mean_motion":15.33466307,"eccentricity":0.000259,"inclination_deg":97.284,"raan_deg":139.9242,"arg_perigee_deg":76.8985,"mean_anomaly_deg":283.2546,"bstar":0.00032048,"rev_number":3021,"period_min":93.904899861618,"perigee_km":463.70728382475,"apogee_km":467.25227731709,"semimajor_km":6843.6167805709,"source":"CELESTRAK","updated_at":"2026-09-20T09:00:43.837743Z"}}}